Flag for United Kingdom Weather past 2 weeks in Birmingham, England, United Kingdom

Now
36 °F

Clear.


Feels Like: 31 °F
Forecast: 35 / 47 °F
Wind: 6 mph from Southwest

Location: Birmingham / Airport

Current Time: Jan 25, 2015 at 4:05:34 AM

Latest Report: Jan 25, 2015 at 3:20 AM


Visibility: 10 mi

Pressure: 30.42 "Hg

Humidity: 87%

Dew point: 32 °F

Location of BirminghamLocation

Historic Weather in Birmingham — Graph

°F

Birmingham temperature yesterday

Maximum temperature yesterday: 43 °F (at 12:20 AM)
Minimum temperature yesterday: 37 °F (at 4:50 AM)
Average temperature yesterday: 40 °F

Past Weeks' High & Low Weather Summary

 TemperatureHumidityPressure
High57 °F (Jan 10, 4:50 AM)100% (Jan 12, 9:50 PM)30.45 "Hg (Jan 12, 9:50 PM)
Low25 °F (Jan 20, 2:50 AM)42% (Jan 10, 2:50 PM)28.94 "Hg (Jan 15, 1:20 AM)
Average38 °F83%29.81 "Hg
* Reported Jan 10 2:20 AM — Jan 25 2:50 AM, Birmingham, Weather by CustomWeather, © 2014

Note: Actual official high and low records may vary slightly from our data, if they occured in-between our weather recording intervals... More about our weather records

Advertising

Birmingham weather history for previous 24 hours

 ConditionsComfort  
Time TempWeatherWind HumidityBarometerVisibility
2:50 AM
Jan 25
36 °FChilly.6 mph87%30.42 "HgN/A
2:20 AM36 °FChilly.6 mph87%30.42 "HgN/A
1:50 AM36 °FChilly.7 mph87%30.42 "HgN/A
1:20 AM36 °FClear.5 mph87%30.42 "Hg10 mi
12:50 AM34 °FClear.6 mph93%30.45 "Hg10 mi
12:20 AM36 °FClear.5 mph81%30.45 "Hg10 mi
11:50 PM
Jan 24
37 °FPassing clouds.5 mph81%30.42 "HgN/A
11:20 PM39 °FClear.3 mph75%30.42 "Hg10 mi
10:50 PM39 °FClear.6 mph75%30.45 "Hg10 mi
10:20 PM39 °FClear.7 mph75%30.45 "Hg10 mi
9:50 PM39 °FPassing clouds.6 mph75%30.45 "HgN/A
9:20 PM39 °FClear.7 mph75%30.45 "Hg10 mi
8:50 PM39 °FPassing clouds.6 mph75%30.45 "HgN/A
8:20 PM39 °FClear.7 mph75%30.42 "Hg10 mi
7:50 PM39 °FPassing clouds.5 mph70%30.42 "HgN/A
7:20 PM37 °FClear.3 mph75%30.42 "Hg10 mi
6:50 PM41 °FPassing clouds.6 mph66%30.42 "HgN/A
6:20 PM39 °FClear.5 mph70%30.42 "Hg10 mi
5:50 PM41 °FPassing clouds.5 mph66%30.42 "HgN/A
5:20 PM41 °FClear.3 mph66%30.39 "Hg10 mi
4:50 PM41 °FPassing clouds.5 mph66%30.39 "HgN/A
4:20 PM41 °FScattered clouds.7 mph66%30.39 "HgN/A
3:50 PM43 °FScattered clouds.9 mph61%30.36 "HgN/A
3:20 PM43 °FBroken clouds.8 mph61%30.36 "HgN/A
2:50 PM43 °FScattered clouds.10 mph61%30.36 "HgN/A
2:20 PM43 °FBroken clouds.13 mph66%30.36 "HgN/A
1:50 PM43 °FPartly sunny.13 mph61%30.33 "HgN/A
1:20 PM43 °FPartly sunny.15 mph66%30.33 "HgN/A
12:50 PM43 °FPartly sunny.15 mph66%30.33 "HgN/A
12:20 PM43 °FScattered clouds.14 mph66%30.33 "HgN/A
11:50 AM41 °FScattered clouds.12 mph66%30.30 "HgN/A
11:20 AM41 °FScattered clouds.10 mph66%30.30 "HgN/A
10:50 AM41 °FBroken clouds.10 mph66%30.30 "HgN/A
10:20 AM39 °FScattered clouds.10 mph70%30.30 "HgN/A
9:50 AM39 °FSunny.10 mph70%30.27 "Hg10 mi
9:20 AM39 °FSunny.14 mph70%30.27 "Hg10 mi
8:50 AM37 °FSunny.17 mph75%30.24 "Hg10 mi
8:20 AM37 °FSunny.15 mph75%30.24 "Hg10 mi
7:50 AM37 °FClear.10 mph75%30.21 "Hg10 mi
7:20 AM37 °FClear.9 mph75%30.21 "Hg10 mi
6:50 AM37 °FClear.9 mph75%30.18 "Hg10 mi
6:20 AM37 °FClear.13 mph75%30.15 "Hg10 mi
5:50 AM37 °FClear.10 mph81%30.15 "Hg10 mi
5:20 AM39 °FPassing clouds.12 mph75%30.15 "HgN/A
4:50 AM37 °FClear.10 mph81%30.15 "Hg10 mi
4:20 AM39 °FClear.15 mph75%30.12 "Hg10 mi
Weather by CustomWeather, © 2014

See weather overviewHow to use our weather pages